| time (UTC) | temp F | wind direction | speed MPH | gust MPH | rain 1hr in | rain 24hr in | rain mn in | humidity % | barometer mb |
| 20260509113027 | 49 | 204 | 5.0 | 6.0 | 0.00 | 0.06 | 0.06 | 98 | 679.4 |
| 20260509112027 | 49 | 199 | 5.0 | 7.0 | 0.00 | 0.06 | 0.06 | 98 | 679.4 |
| 20260509111047 | 49 | 195 | 4.0 | 6.0 | 0.00 | 0.06 | 0.06 | 98 | 679.4 |
| 20260509110027 | 49 | 185 | 5.0 | 7.0 | 0.00 | 0.06 | 0.06 | 97 | 679.4 |
| 20260509105027 | 49 | 186 | 4.0 | 6.0 | 0.00 | 0.06 | 0.06 | 97 | 679.4 |
| 20260509104048 | 49 | 206 | 3.0 | 5.0 | 0.00 | 0.06 | 0.06 | 97 | 679.4 |
| 20260509103028 | 49 | 188 | 4.0 | 6.0 | 0.00 | 0.06 | 0.06 | 97 | 679.4 |
| 20260509102028 | 49 | 212 | 3.0 | 4.0 | 0.00 | 0.06 | 0.06 | 97 | 679.4 |
| 20260509101028 | 49 | 207 | 3.0 | 4.0 | 0.00 | 0.06 | 0.06 | 97 | 679.4 |
| 20260509100028 | 49 | 195 | 4.0 | 7.0 | 0.00 | 0.06 | 0.06 | 97 | 679.4 |
| 20260509095048 | 49 | 202 | 4.0 | 5.0 | 0.00 | 0.06 | 0.06 | 97 | 679.4 |
| 20260509094028 | 49 | 192 | 5.0 | 6.0 | 0.00 | 0.06 | 0.06 | 97 | 679.4 |
| 20260509093029 | 49 | 187 | 4.0 | 5.0 | 0.00 | 0.06 | 0.06 | 98 | 679.4 |
| 20260509092029 | 49 | 191 | 4.0 | 5.0 | 0.00 | 0.06 | 0.06 | 97 | 679.4 |
| 20260509091029 | 49 | 189 | 4.0 | 6.0 | 0.00 | 0.06 | 0.06 | 98 | 679.4 |
| 20260509090029 | 49 | 197 | 3.0 | 4.0 | 0.00 | 0.06 | 0.06 | 98 | 679.4 |
| 20260509085029 | 49 | 197 | 3.0 | 4.0 | 0.00 | 0.06 | 0.06 | 98 | 679.4 |
| 20260509084049 | 49 | 191 | 3.0 | 4.0 | 0.00 | 0.06 | 0.06 | 98 | 679.4 |
| 20260509083030 | 49 | 201 | 3.0 | 4.0 | 0.00 | 0.06 | 0.06 | 98 | 679.4 |
| 20260509082030 | 49 | 196 | 3.0 | 5.0 | 0.00 | 0.06 | 0.06 | 98 | 679.4 |
| 20260509081030 | 49 | 190 | 3.0 | 4.0 | 0.00 | 0.06 | 0.06 | 98 | 679.4 |
| 20260509080030 | 49 | 184 | 4.0 | 5.0 | 0.00 | 0.06 | 0.06 | 97 | 679.4 |
| 20260509075030 | 48 | 170 | 4.0 | 6.0 | 0.00 | 0.06 | 0.06 | 97 | 679.4 |
| 20260509074030 | 48 | 168 | 4.0 | 5.0 | 0.00 | 0.06 | 0.06 | 97 | 679.4 |
| 20260509073050 | 48 | 186 | 3.0 | 6.0 | 0.00 | 0.06 | 0.06 | 97 | 679.4 |
| 20260509072030 | 48 | 183 | 3.0 | 6.0 | 0.00 | 0.06 | 0.06 | 97 | 679.4 |
| 20260509071030 | 48 | 195 | 3.0 | 5.0 | 0.00 | 0.06 | 0.06 | 96 | 679.4 |
| 20260509070030 | 48 | 203 | 3.0 | 5.0 | 0.00 | 0.06 | 0.06 | 96 | 679.4 |
| 20260509065031 | 47 | 174 | 4.0 | 5.0 | 0.00 | 0.06 | 0.06 | 95 | 679.4 |
| 20260509064031 | 47 | 164 | 3.0 | 5.0 | 0.00 | 0.06 | 0.06 | 94 | 679.4 |
| 20260509063031 | 46 | 167 | 3.0 | 5.0 | 0.00 | 0.06 | 0.06 | 93 | 679.4 |
| 20260509062031 | 46 | 157 | 4.0 | 5.0 | 0.03 | 0.06 | 0.06 | 91 | 679.4 |
| 20260509061031 | 46 | 163 | 4.0 | 6.0 | 0.03 | 0.06 | 0.06 | 91 | 679.4 |
| 20260509060031 | 47 | 151 | 3.0 | 5.0 | 0.04 | 0.06 | 0.06 | 91 | 679.4 |
| 20260509055031 | 47 | 163 | 3.0 | 4.0 | 0.06 | 0.06 | 0.06 | 90 | 679.4 |
| 20260509054031 | 47 | 158 | 4.0 | 6.0 | 0.06 | 0.06 | 0.06 | 90 | 679.4 |
| 20260509053032 | 47 | 168 | 4.0 | 7.0 | 0.06 | 0.06 | 0.06 | 87 | 679.4 |
| 20260509052017 | 47 | 173 | 5.0 | 7.0 | 0.03 | 0.03 | 0.03 | 86 | 679.4 |
| 20260509051017 | 48 | 171 | 5.0 | 7.0 | 0.03 | 0.03 | 0.03 | 86 | 679.4 |
| 20260509050017 | 48 | 175 | 4.0 | 6.0 | 0.02 | 0.02 | 0.02 | 83 | 679.4 |
| 20260509045017 | 48 | 173 | 4.0 | 6.0 | 0.00 | 0.00 | 0.00 | 77 | 679.4 |
| 20260509044037 | 47 | 158 | 4.0 | 7.0 | 0.00 | 0.00 | 0.00 | 77 | 679.4 |
| 20260509043037 | 47 | 167 | 4.0 | 5.0 | 0.00 | 0.00 | 0.00 | 77 | 679.4 |
| 20260509042052 | 47 | 160 | 4.0 | 6.0 | 0.00 | 0.00 | 0.00 | 77 | 679.4 |
| 20260509041033 | 47 | 160 | 4.0 | 5.0 | 0.00 | 0.00 | 0.00 | 77 | 679.4 |
| 20260509040018 | 47 | 165 | 3.0 | 5.0 | 0.00 | 0.00 | 0.00 | 77 | 679.4 |
| 20260509035018 | 47 | 162 | 3.0 | 4.0 | 0.00 | 0.00 | 0.00 | 75 | 679.4 |
| 20260509034019 | 47 | 176 | 3.0 | 5.0 | 0.00 | 0.00 | 0.00 | 74 | 679.4 |
| 20260509033018 | 47 | 169 | 3.0 | 4.0 | 0.00 | 0.00 | 0.00 | 74 | 679.4 |
| 20260509032039 | 47 | 169 | 4.0 | 5.0 | 0.00 | 0.00 | 0.00 | 73 | 679.4 |
| 20260509031019 | 48 | 166 | 3.0 | 4.0 | 0.00 | 0.00 | 0.00 | 72 | 679.4 |
| 20260509030018 | 48 | 195 | 3.0 | 4.0 | 0.00 | 0.00 | 0.00 | 70 | 679.5 |
| 20260509025019 | 48 | 197 | 3.0 | 4.0 | 0.00 | 0.00 | 0.00 | 70 | 679.5 |
| 20260509024019 | 49 | 201 | 4.0 | 6.0 | 0.00 | 0.00 | 0.00 | 70 | 679.5 |
| 20260509023119 | 49 | 196 | 4.0 | 5.0 | 0.00 | 0.00 | 0.00 | 69 | 679.5 |
| 20260509022019 | 49 | 197 | 3.0 | 5.0 | 0.00 | 0.00 | 0.00 | 67 | 679.5 |
| 20260509021019 | 49 | 189 | 4.0 | 6.0 | 0.00 | 0.00 | 0.00 | 66 | 679.5 |
| 20260509020020 | 49 | 194 | 3.0 | 3.0 | 0.00 | 0.00 | 0.00 | 66 | 679.5 |
| 20260509015040 | 49 | 173 | 3.0 | 4.0 | 0.00 | 0.00 | 0.00 | 65 | 679.5 |
| 20260509014020 | 49 | 151 | 3.0 | 4.0 | 0.00 | 0.00 | 0.00 | 64 | 679.5 |
| 20260509013020 | 50 | 148 | 2.0 | 3.0 | 0.00 | 0.00 | 0.00 | 64 | 679.5 |
| 20260509012020 | 50 | 167 | 4.0 | 5.0 | 0.00 | 0.00 | 0.00 | 64 | 679.5 |
| 20260509011020 | 50 | 162 | 3.0 | 4.0 | 0.00 | 0.00 | 0.00 | 62 | 679.5 |
| 20260509010021 | 50 | 175 | 3.0 | 4.0 | 0.00 | 0.00 | 0.00 | 62 | 679.5 |
| 20260509005021 | 51 | 162 | 3.0 | 4.0 | 0.00 | 0.00 | 0.00 | 61 | 679.5 |
| 20260509004041 | 52 | 175 | 4.0 | 5.0 | 0.00 | 0.00 | 0.00 | 59 | 679.6 |
| 20260509003041 | 52 | 183 | 4.0 | 5.0 | 0.00 | 0.00 | 0.00 | 56 | 679.6 |
| 20260509002041 | 53 | 197 | 4.0 | 6.0 | 0.00 | 0.00 | 0.00 | 55 | 679.6 |
| 20260509001021 | 53 | 194 | 5.0 | 7.0 | 0.00 | 0.00 | 0.00 | 56 | 679.6 |
| 20260509000022 | 54 | 199 | 5.0 | 8.0 | 0.00 | 0.00 | 0.00 | 55 | 679.6 |
| 20260508235022 | 55 | 187 | 5.0 | 6.0 | 0.00 | 0.00 | 0.00 | 54 | 679.6 |
| 20260508234021 | 55 | 193 | 5.0 | 7.0 | 0.00 | 0.00 | 0.00 | 53 | 679.6 |
| 20260508233022 | 56 | 186 | 4.0 | 6.0 | 0.00 | 0.00 | 0.00 | 52 | 679.6 |
| 20260508232022 | 56 | 193 | 5.0 | 8.0 | 0.00 | 0.00 | 0.00 | 51 | 679.7 |
| 20260508231022 | 57 | 205 | 5.0 | 8.0 | 0.00 | 0.00 | 0.00 | 50 | 679.7 |
| 20260508230022 | 58 | 191 | 6.0 | 9.0 | 0.00 | 0.00 | 0.00 | 49 | 679.7 |
| 20260508225102 | 58 | 211 | 5.0 | 8.0 | 0.00 | 0.00 | 0.00 | 48 | 679.7 |
| 20260508224022 | 58 | 195 | 5.0 | 6.0 | 0.00 | 0.00 | 0.00 | 48 | 679.8 |
| 20260508223022 | 59 | 190 | 6.0 | 8.0 | 0.00 | 0.00 | 0.00 | 46 | 679.8 |
| 20260508222022 | 60 | 239 | 5.0 | 7.0 | 0.00 | 0.00 | 0.00 | 44 | 679.8 |
| 20260508221023 | 60 | 206 | 7.0 | 12.0 | 0.00 | 0.00 | 0.00 | 43 | 679.8 |
| 20260508220023 | 61 | 200 | 9.0 | 12.0 | 0.00 | 0.00 | 0.00 | 43 | 679.8 |
| 20260508215023 | 62 | 216 | 5.0 | 8.0 | 0.00 | 0.00 | 0.00 | 43 | 679.8 |
| 20260508214023 | 63 | 216 | 4.0 | 8.0 | 0.00 | 0.00 | 0.00 | 43 | 679.9 |
| 20260508213023 | 64 | 210 | 6.0 | 9.0 | 0.00 | 0.00 | 0.00 | 42 | 679.9 |
| 20260508212023 | 63 | 217 | 5.0 | 9.0 | 0.00 | 0.00 | 0.00 | 43 | 679.9 |
| 20260508211024 | 63 | 203 | 8.0 | 11.0 | 0.00 | 0.00 | 0.00 | 42 | 679.9 |
| 20260508210024 | 63 | 210 | 6.0 | 8.0 | 0.00 | 0.00 | 0.00 | 42 | 679.9 |
| 20260508205044 | 64 | 225 | 6.0 | 9.0 | 0.00 | 0.00 | 0.00 | 42 | 679.9 |
| 20260508204024 | 64 | 214 | 4.0 | 6.0 | 0.00 | 0.00 | 0.00 | 39 | 679.9 |
| 20260508203024 | 65 | 229 | 3.0 | 5.0 | 0.00 | 0.00 | 0.00 | 31 | 679.9 |
| 20260508202024 | 65 | 207 | 2.0 | 3.0 | 0.00 | 0.00 | 0.00 | 28 | 679.9 |
| 20260508201024 | 64 | 224 | 4.0 | 7.0 | 0.00 | 0.00 | 0.00 | 29 | 679.9 |
| 20260508200045 | 64 | 331 | 3.0 | 7.0 | 0.00 | 0.00 | 0.00 | 27 | 679.9 |
| 20260508195024 | 64 | 208 | 4.0 | 6.0 | 0.00 | 0.00 | 0.00 | 29 | 679.9 |
| 20260508194025 | 64 | 317 | 3.0 | 6.0 | 0.00 | 0.00 | 0.00 | 29 | 679.9 |
| 20260508193105 | 64 | 322 | 3.0 | 6.0 | 0.00 | 0.00 | 0.00 | 29 | 679.9 |
| 20260508192025 | 63 | 350 | 2.0 | 4.0 | 0.00 | 0.00 | 0.00 | 27 | 679.9 |
| 20260508191025 | 64 | 323 | 3.0 | 7.0 | 0.00 | 0.00 | 0.00 | 29 | 679.9 |
| 20260508190025 | 63 | 312 | 1.0 | 3.0 | 0.00 | 0.00 | 0.00 | 30 | 679.9 |
| 20260508185025 | 62 | 280 | 4.0 | 10.0 | 0.00 | 0.00 | 0.00 | 30 | 679.8 |
| 20260508184025 | 63 | 252 | 3.0 | 7.0 | 0.00 | 0.00 | 0.00 | 30 | 679.8 |
| 20260508183046 | 63 | 345 | 2.0 | 4.0 | 0.00 | 0.00 | 0.00 | 27 | 679.8 |
| 20260508182026 | 63 | 303 | 2.0 | 5.0 | 0.00 | 0.00 | 0.00 | 30 | 679.8 |
| 20260508181026 | 63 | 253 | 4.0 | 9.0 | 0.00 | 0.00 | 0.00 | 29 | 679.9 |
| 20260508180026 | 64 | 313 | 3.0 | 6.0 | 0.00 | 0.00 | 0.00 | 30 | 679.9 |
| 20260508175026 | 64 | 234 | 2.0 | 4.0 | 0.00 | 0.00 | 0.00 | 30 | 679.9 |
| 20260508174026 | 64 | 303 | 4.0 | 7.0 | 0.00 | 0.00 | 0.00 | 27 | 679.9 |
| 20260508173026 | 65 | 332 | 3.0 | 5.0 | 0.00 | 0.00 | 0.00 | 29 | 679.9 |
| 20260508172027 | 66 | 322 | 4.0 | 6.0 | 0.00 | 0.00 | 0.00 | 30 | 679.9 |
| 20260508171027 | 67 | 352 | 4.0 | 7.0 | 0.00 | 0.00 | 0.00 | 27 | 679.9 |
| 20260508170027 | 67 | 325 | 4.0 | 8.0 | 0.00 | 0.00 | 0.00 | 29 | 679.9 |
| 20260508165047 | 68 | 247 | 3.0 | 6.0 | 0.00 | 0.00 | 0.00 | 31 | 679.9 |
| 20260508164027 | 68 | 264 | 3.0 | 7.0 | 0.00 | 0.00 | 0.00 | 31 | 679.9 |
| 20260508163027 | 68 | 268 | 2.0 | 4.0 | 0.00 | 0.00 | 0.00 | 33 | 679.9 |
| 20260508162028 | 68 | 284 | 2.0 | 4.0 | 0.00 | 0.00 | 0.00 | 33 | 679.9 |
| 20260508161027 | 68 | 315 | 3.0 | 6.0 | 0.00 | 0.00 | 0.00 | 36 | 679.9 |
| 20260508160028 | 68 | 219 | 4.0 | 7.0 | 0.00 | 0.00 | 0.00 | 33 | 679.9 |
| 20260508155028 | 67 | 339 | 3.0 | 6.0 | 0.00 | 0.00 | 0.00 | 33 | 679.9 |
| 20260508154028 | 66 | 318 | 2.0 | 4.0 | 0.00 | 0.00 | 0.00 | 34 | 679.9 |
| 20260508153028 | 66 | 348 | 3.0 | 6.0 | 0.00 | 0.00 | 0.00 | 35 | 679.9 |
| 20260508152028 | 65 | 314 | 2.0 | 4.0 | 0.00 | 0.00 | 0.00 | 36 | 679.8 |
| 20260508151028 | 65 | 316 | 2.0 | 4.0 | 0.00 | 0.00 | 0.00 | 40 | 679.8 |
| 20260508150028 | 63 | 271 | 2.0 | 6.0 | 0.00 | 0.00 | 0.00 | 41 | 679.8 |
| 20260508145028 | 62 | 246 | 2.0 | 4.0 | 0.00 | 0.00 | 0.00 | 42 | 679.8 |
| 20260508144029 | 60 | 351 | 3.0 | 5.0 | 0.00 | 0.00 | 0.00 | 44 | 679.7 |
| 20260508143029 | 59 | 221 | 5.0 | 7.0 | 0.00 | 0.00 | 0.00 | 49 | 679.6 |
| 20260508142029 | 58 | 324 | 2.0 | 6.0 | 0.00 | 0.00 | 0.00 | 52 | 679.6 |
| 20260508141029 | 56 | 303 | 1.0 | 3.0 | 0.00 | 0.00 | 0.00 | 54 | 679.6 |
| 20260508140029 | 54 | 260 | 2.0 | 5.0 | 0.00 | 0.00 | 0.00 | 58 | 679.5 |
| 20260508135110 | 53 | 300 | 1.0 | 4.0 | 0.00 | 0.00 | 0.00 | 58 | 679.5 |
| 20260508134029 | 52 | 298 | 1.0 | 2.0 | 0.00 | 0.00 | 0.00 | 60 | 679.5 |
| 20260508133030 | 52 | 338 | 3.0 | 6.0 | 0.00 | 0.00 | 0.00 | 62 | 679.5 |
| 20260508132029 | 51 | 307 | 1.0 | 3.0 | 0.00 | 0.00 | 0.00 | 64 | 679.5 |
| 20260508131030 | 50 | 324 | 2.0 | 4.0 | 0.00 | 0.00 | 0.00 | 64 | 679.5 |
| 20260508130051 | 50 | 281 | 2.0 | 3.0 | 0.00 | 0.00 | 0.00 | 68 | 679.4 |
| 20260508125030 | 49 | 327 | 2.0 | 4.0 | 0.00 | 0.00 | 0.00 | 70 | 679.4 |
| 20260508124015 | 48 | 302 | 1.0 | 3.0 | 0.00 | 0.00 | 0.00 | 71 | 679.4 |
| 20260508123030 | 47 | 292 | 1.0 | 2.0 | 0.00 | 0.00 | 0.00 | 73 | 679.4 |
| 20260508122051 | 46 | 251 | 1.0 | 4.0 | 0.00 | 0.00 | 0.00 | 75 | 679.4 |
| 20260508121031 | 45 | 294 | 1.0 | 3.0 | 0.00 | 0.00 | 0.00 | 77 | 679.3 |
| 20260508120031 | 43 | 327 | 1.0 | 3.0 | 0.00 | 0.00 | 0.00 | 77 | 679.3 |
| 20260508115031 | 41 | 246 | 2.0 | 3.0 | 0.00 | 0.00 | 0.00 | 77 | 679.2 |
| 20260508114031 | 40 | 263 | 1.0 | 3.0 | 0.00 | 0.00 | 0.00 | 77 | 679.2 |